Tel Aviv, Israel

2:16 PM IDT on April 22, 2018 (GMT +0300)
Ben Gurion

Weather History for LLBG - October, 2013

Change the Weather History Date:

Sunday, October 6, 2013

  Actual Average Record
Temperature  
Mean Temperature 72 °F -  
Max Temperature 78 °F 80 °F 89 °F (2000)
Min Temperature 66 °F 62 °F 64 °F (1996)
Cooling Degree Days 7    
Growing Degree Days 22 (Base 50)    
Moisture  
Dew Point 49 °F    
Average Humidity 45    
Maximum Humidity 60    
Minimum Humidity 27    
Precipitation  
Precipitation 0.00 in - - ()
Sea Level Pressure  
Sea Level Pressure 29.99 in    
Wind  
Wind Speed 7 mph ()    
Max Wind Speed 21 mph    
Max Gust Speed 20 mph    
Visibility 6.2 miles    
Events Rain    
Averages and records for this station are not official NWS values.
T = Trace of Precipitation, MM = Missing Value Source: Averaged Metar Reports

Daily Weather History Graph

Daily Weather History Graph

Search for Another Location

Airport or City:

Astronomy

Oct. 06, 2013 Rise Set
Actual Time 6:37 AM IDT 6:18 PM IDT
Civil Twilight 6:13 AM IDT 6:43 PM IDT
Nautical Twilight 5:44 AM IDT 7:11 PM IDT
Astronomical Twilight 5:16 AM IDT 7:40 PM IDT
Moon 7:52 AM IDT (10/6) 7:11 PM IDT (10/6)
Length of Visible Light 12h 30m
Length of Day
11h 41m
New Moon, 2% of the Moon is Illuminated
Oct 6
New Moon
Oct 12
First Quarter
Oct 19
Full
Oct 27
Last Quarter
Nov 3
New

Hourly Weather History & Observations

Time (IDT) Temp. Dew Point Humidity Pressure Visibility Wind Dir Wind Speed Gust Speed Precip Events Conditions
12:20 AM 71.6 °F 48.2 °F 43% 29.95 in - WNW 4.6 mph - N/A   Clear
12:50 AM 69.8 °F 48.2 °F 46% 29.95 in - Variable 2.3 mph - N/A   Clear
1:20 AM 69.8 °F 48.2 °F 46% 29.95 in - Variable 2.3 mph - N/A   Clear
1:50 AM 69.8 °F 50.0 °F 49% 29.95 in - SSE 4.6 mph - N/A   Clear
2:20 AM 69.8 °F 51.8 °F 53% 29.92 in 6.2 mi SE 5.8 mph - N/A   Partly Cloudy
2:50 AM 68.0 °F 51.8 °F 56% 29.92 in 6.2 mi SSE 6.9 mph - N/A Rain Light Rain
3:00 AM 68 °F 52 °F 45% 29.94 in 6 mi SSE 5.8 mph - -  
3:20 AM 68.0 °F 51.8 °F 56% 29.92 in 6.2 mi SE 6.9 mph - N/A   Mostly Cloudy
3:50 AM 68.0 °F 51.8 °F 56% 29.92 in 6.2 mi SSE 5.8 mph - N/A   Mostly Cloudy
4:20 AM 68.0 °F 51.8 °F 56% 29.92 in 6.2 mi Variable 1.2 mph - N/A Rain Light Rain
4:50 AM 68.0 °F 51.8 °F 56% 29.95 in 6.2 mi Variable 3.5 mph - N/A   Mostly Cloudy
5:20 AM 68.0 °F 51.8 °F 56% 29.95 in 6.2 mi South 4.6 mph - N/A   Mostly Cloudy
5:50 AM 68.0 °F 51.8 °F 56% 29.95 in - South 4.6 mph - N/A   Clear
6:20 AM 66.2 °F 51.8 °F 60% 29.95 in - South 6.9 mph - N/A   Clear
6:50 AM 66.2 °F 51.8 °F 60% 29.95 in - South 5.8 mph - N/A   Clear
7:20 AM 66.2 °F 51.8 °F 60% 29.95 in - South 8.1 mph 19.6 mph N/A   Clear
7:50 AM 68.0 °F 51.8 °F 56% 29.98 in - South 9.2 mph - N/A   Clear
8:20 AM 68.0 °F 51.8 °F 56% 29.98 in - South 9.2 mph - N/A   Clear
8:50 AM 69.8 °F 51.8 °F 53% 29.98 in - South 5.8 mph - N/A   Clear
9:20 AM 73.4 °F 50.0 °F 44% 29.98 in - Variable 3.5 mph - N/A   Clear
9:50 AM 75.2 °F 46.4 °F 36% 29.98 in 6.2 mi NW 13.8 mph - N/A   Scattered Clouds
10:20 AM 75.2 °F 48.2 °F 38% 29.98 in 6.2 mi West 12.7 mph - N/A   Scattered Clouds
10:50 AM 77.0 °F 48.2 °F 36% 29.98 in 6.2 mi WNW 10.4 mph - N/A   Scattered Clouds
11:20 AM 75.2 °F 48.2 °F 38% 29.98 in 6.2 mi WNW 12.7 mph - N/A   Partly Cloudy
11:50 AM 77.0 °F 48.2 °F 36% 29.98 in 6.2 mi WNW 12.7 mph - N/A   Partly Cloudy
12:20 PM 75.2 °F 50.0 °F 41% 29.98 in 6.2 mi NW 10.4 mph - N/A   Partly Cloudy
12:50 PM 75.2 °F 51.8 °F 44% 29.98 in 6.2 mi NW 11.5 mph - N/A   Scattered Clouds
1:20 PM 77.0 °F 51.8 °F 41% 29.98 in 6.2 mi NNW 17.3 mph - N/A   Scattered Clouds
1:50 PM 77.0 °F 51.8 °F 41% 29.98 in 6.2 mi NNW 18.4 mph - N/A   Scattered Clouds
2:20 PM 75.2 °F 50.0 °F 41% 29.98 in 6.2 mi NNW 19.6 mph - N/A   Partly Cloudy
2:50 PM 75.2 °F 48.2 °F 38% 29.98 in 6.2 mi NNW 18.4 mph - N/A   Partly Cloudy
3:00 PM 76 °F 48 °F 27% 29.99 in 6 mi NW 18.4 mph - -   Scattered Clouds
3:20 PM 75.2 °F 48.2 °F 38% 29.98 in 6.2 mi NNW 20.7 mph - N/A   Partly Cloudy
3:50 PM 75.2 °F 48.2 °F 38% 29.98 in 6.2 mi North 17.3 mph - N/A   Partly Cloudy
4:20 PM 75.2 °F 46.4 °F 36% 29.98 in 6.2 mi NNW 16.1 mph - N/A   Partly Cloudy
4:50 PM 73.4 °F 46.4 °F 38% 29.98 in 6.2 mi NNW 15.0 mph - N/A   Partly Cloudy
5:20 PM 73.4 °F 48.2 °F 41% 29.98 in 6.2 mi North 13.8 mph - N/A   Partly Cloudy
5:50 PM 73.4 °F 48.2 °F 41% 30.01 in 6.2 mi North 13.8 mph - N/A   Partly Cloudy
6:20 PM 71.6 °F 48.2 °F 43% 30.01 in 6.2 mi North 10.4 mph - N/A   Partly Cloudy
6:50 PM 73.4 °F 46.4 °F 38% 30.01 in 6.2 mi NNW 12.7 mph - N/A   Partly Cloudy
7:20 PM 71.6 °F 46.4 °F 41% 30.01 in 6.2 mi North 12.7 mph - N/A   Partly Cloudy
7:50 PM 69.8 °F 46.4 °F 43% 30.04 in 6.2 mi North 4.6 mph - N/A   Partly Cloudy
8:20 PM 69.8 °F 44.6 °F 40% 30.06 in 6.2 mi North 5.8 mph - N/A   Partly Cloudy
8:50 PM 69.8 °F 44.6 °F 40% 30.06 in 6.2 mi North 4.6 mph - N/A   Partly Cloudy
9:00 PM 69 °F 44 °F 29% 30.07 in 6 mi North 4.6 mph - -   Scattered Clouds
9:20 PM 69.8 °F 44.6 °F 40% 30.06 in - ENE 4.6 mph - N/A   Clear
9:50 PM 68.0 °F 46.4 °F 46% 30.06 in - NE 4.6 mph - N/A   Clear
10:20 PM 68.0 °F 44.6 °F 43% 30.06 in - Variable 3.5 mph - N/A   Clear
10:50 PM 66.2 °F 44.6 °F 46% 30.06 in - Variable 3.5 mph - N/A   Clear
11:20 PM 66.2 °F 44.6 °F 46% 30.06 in - Variable 3.5 mph - N/A   Clear
11:50 PM 66.2 °F 44.6 °F 46% 30.06 in - Variable 3.5 mph - N/A   Clear